{"data":{"norad_id":50191,"epoch":"2026-05-25T02:06:12.604896Z","epoch_age_seconds":63378,"freshness":"FRESH","line1":"1 50191U 21125AM  26145.08764589  .00000334  00000+0  39061-4 0  9994","line2":"2 50191  53.2137 276.1558 0001129  89.8021 270.3100 15.08840996247987","mean_motion":15.08840996,"eccentricity":0.0001129,"inclination_deg":53.2137,"raan_deg":276.1558,"arg_perigee_deg":89.8021,"mean_anomaly_deg":270.31,"bstar":3.9061e-5,"rev_number":24798,"period_min":95.437491678547,"perigee_km":538.95931624003,"apogee_km":540.52137294444,"semimajor_km":6917.8773445922,"source":"CELESTRAK","updated_at":"2026-05-25T13:38:16.871043Z"}}